Theta_e
349 349 348 347 347 346 346 345 343 342 343 343 343 343 343 343 344 343 342 342 342 343 343 342 340 336 332 329 328 331 334 334 333 333 333 332 330 330 329 328 329 330 332 336 339 340 339 339 340 340 340 339 339 339 339 341 341 341 342 343 343 343 343 343 343 342 340 340 340 335 333 334 333 333 335 335 335 334 334 333 336 341 342 338 338
349 349 349 347 346 346 345 345 344 344 343 343 344 343 343 344 344 343 343 344 345 345 344 344 343 340 336 334 331 330 333 333 333 333 331 330 330 331 330 329 330 332 335 339 340 340 340 340 340 340 339 340 340 339 339 340 341 342 342 342 343 343 343 344 344 343 341 342 341 337 334 335 334 333 334 333 332 332 331 331 337 342 340 337 337
349 349 348 348 346 346 345 345 346 344 343 343 343 343 343 344 345 344 343 344 346 345 345 344 342 341 339 337 334 332 333 334 333 331 330 331 332 332 332 331 332 335 337 340 340 339 339 339 339 339 339 339 340 339 339 339 341 341 341 341 342 343 343 343 344 343 342 343 341 339 338 338 335 332 332 332 332 333 332 333 338 341 338 337 338
349 349 348 347 346 346 344 345 346 344 343 344 343 344 345 345 345 344 344 344 345 345 345 344 342 341 339 337 335 334 333 333 331 331 331 332 334 334 334 333 334 337 338 339 339 338 338 338 338 337 338 338 339 339 338 338 340 341 341 341 342 343 343 343 343 343 343 343 341 339 341 343 337 332 333 332 333 335 335 335 338 339 337 338 337
349 349 349 347 346 346 344 344 346 345 344 343 343 344 344 344 344 344 344 344 344 345 345 343 341 340 339 337 335 334 332 331 331 333 333 333 335 336 334 333 334 338 338 338 338 338 337 337 336 336 337 338 338 338 338 338 338 339 340 341 340 341 342 341 342 344 344 343 341 339 340 344 341 333 333 335 336 337 336 337 337 338 338 338 337
349 350 349 347 347 346 343 343 344 345 343 342 343 343 343 343 343 343 343 343 344 344 343 342 340 339 337 336 335 333 332 332 334 336 337 336 336 335 334 334 336 338 338 338 337 337 336 336 336 336 336 337 337 337 338 339 338 338 340 340 339 339 341 341 340 343 344 343 342 341 340 342 343 337 334 336 337 338 337 337 338 338 338 338 339
350 351 350 348 347 344 341 341 343 345 343 342 343 343 343 342 342 342 342 342 343 342 341 340 339 338 336 335 334 333 333 334 336 338 340 338 335 335 335 334 336 338 338 337 337 337 336 336 337 336 336 336 336 337 338 339 339 338 338 340 339 338 341 342 340 341 343 344 343 342 340 340 343 340 334 336 336 337 337 336 337 338 339 340 340
349 350 351 350 347 342 339 340 342 345 344 343 343 344 344 343 343 342 342 342 341 341 339 339 338 337 336 336 335 335 334 335 337 339 340 336 334 334 332 332 336 338 337 337 336 337 336 335 336 337 337 337 337 337 338 338 339 339 339 341 340 338 340 341 340 341 343 345 343 339 339 338 342 342 335 335 336 336 336 336 336 337 340 340 341
349 349 349 349 347 343 339 340 342 344 344 343 344 344 345 343 343 342 342 341 341 340 339 339 339 338 337 337 337 337 337 337 338 338 337 334 332 332 331 333 336 337 336 336 336 335 334 335 336 337 337 337 337 338 338 338 338 339 339 340 341 340 340 341 340 343 344 344 341 338 337 336 341 343 336 335 336 336 337 338 339 338 340 341 341
350 349 349 348 346 344 341 342 344 344 344 343 344 345 345 344 342 342 341 340 340 340 339 340 339 339 338 338 338 338 339 339 337 335 334 333 332 330 332 335 337 338 337 336 336 335 334 336 337 336 336 336 336 337 338 338 338 339 339 339 339 340 341 341 341 343 344 343 340 337 336 334 341 342 335 335 336 336 337 339 340 339 340 341 341
350 351 351 349 345 345 343 343 344 344 344 344 344 344 345 344 343 343 342 342 341 340 340 340 340 340 340 340 340 339 339 338 335 334 333 333 331 330 333 336 338 338 336 336 335 335 335 336 336 335 335 335 335 336 337 338 338 338 339 339 339 339 340 340 343 346 342 340 338 339 340 336 341 341 335 335 336 337 336 336 337 339 340 340 340
350 352 353 350 346 345 344 344 344 345 345 344 344 344 344 343 344 344 344 343 342 342 341 341 341 341 341 341 340 339 338 336 334 333 333 333 331 330 334 337 337 336 336 336 335 335 336 336 336 336 336 336 336 336 337 338 338 339 339 339 339 339 340 340 343 347 343 339 335 339 344 339 340 337 333 335 336 337 336 335 336 338 339 339 339
350 351 352 349 347 346 345 345 345 345 345 344 345 344 344 344 344 345 344 343 342 341 341 340 340 341 341 341 340 339 337 335 334 333 334 332 330 331 335 337 336 334 335 336 336 337 337 336 336 337 336 336 336 336 337 338 337 338 339 339 340 339 341 341 342 345 343 341 337 337 340 339 341 335 332 335 335 338 338 337 337 337 338 338 339
349 351 351 349 348 347 346 346 345 345 345 345 345 345 344 344 344 344 343 341 340 340 340 340 339 340 340 340 340 338 336 334 333 333 333 331 331 334 336 335 333 332 335 336 337 338 337 337 337 337 336 337 337 337 336 337 338 338 339 340 340 340 341 342 343 344 342 341 340 339 338 338 339 334 333 334 334 338 339 339 338 336 337 338 338
350 351 350 349 348 347 347 346 345 345 345 345 345 345 345 345 344 343 342 340 340 340 339 339 339 339 339 338 337 336 335 334 333 332 331 331 333 334 334 333 332 333 336 338 339 337 337 337 337 336 337 338 337 337 336 337 338 338 339 340 341 341 341 343 347 347 343 341 342 341 339 338 335 333 334 334 333 336 339 340 340 338 337 337 338
351 352 351 350 349 348 347 346 346 346 346 346 346 345 344 344 344 342 341 340 339 340 339 339 339 338 338 336 335 335 335 333 333 333 333 334 335 334 333 333 334 336 338 340 340 338 337 338 336 337 337 337 337 336 337 337 338 338 339 340 341 341 340 342 347 350 346 343 342 341 343 341 334 334 335 335 333 335 339 339 340 340 337 338 338
352 351 350 350 349 348 347 347 347 346 346 346 345 345 343 343 343 342 341 340 340 340 339 339 339 338 337 336 335 335 334 334 334 335 336 335 334 333 333 335 336 338 338 339 340 338 338 337 335 337 337 337 337 335 337 338 338 339 340 340 340 340 339 340 345 349 345 342 342 341 346 343 335 333 335 336 333 334 338 338 339 340 339 339 338
352 350 349 347 347 346 346 347 346 345 345 344 344 343 343 343 343 341 341 341 341 340 340 339 338 338 338 337 337 336 336 336 337 337 336 334 333 333 335 337 337 338 338 339 339 338 338 336 335 337 337 337 338 337 337 339 339 340 340 340 339 339 339 339 343 345 342 343 344 344 346 342 336 335 334 336 335 333 335 337 338 339 340 339 338
351 351 349 348 349 348 347 346 345 345 344 344 344 343 342 342 342 341 341 341 341 341 340 339 338 338 338 338 338 338 338 337 337 335 334 333 334 336 337 337 337 338 338 339 339 338 339 337 336 336 337 337 338 338 339 340 339 339 340 340 340 339 340 341 342 342 342 345 345 345 345 341 339 338 334 336 337 334 333 335 337 338 338 338 338
351 352 350 350 351 349 347 347 347 346 345 346 345 344 342 341 342 341 341 341 341 340 339 339 338 338 338 339 338 338 338 337 335 334 334 334 336 336 337 338 338 339 339 340 340 338 338 337 336 337 337 337 337 337 338 339 340 339 339 340 340 341 342 342 342 342 343 344 344 344 343 341 341 340 337 335 337 336 333 333 335 336 337 337 338
349 350 349 349 349 347 345 346 348 346 345 345 344 345 343 341 342 342 342 341 340 339 339 339 338 339 339 338 337 338 339 339 337 336 337 336 337 337 337 338 339 340 341 341 341 339 337 336 336 337 336 336 336 337 338 339 340 341 341 340 341 342 343 342 343 343 342 342 342 343 342 341 341 341 340 335 336 338 335 333 333 335 336 336 337
349 348 347 346 346 344 344 345 346 345 345 345 345 346 343 342 343 342 341 341 340 339 339 339 339 340 339 338 338 339 340 339 339 337 337 338 337 338 338 339 340 341 341 341 340 339 337 336 336 337 338 338 337 338 340 340 341 342 342 342 343 344 343 342 343 344 344 344 342 342 342 342 341 341 341 337 336 337 337 335 332 332 334 335 336
351 350 347 347 347 345 345 346 346 344 345 345 346 347 343 343 345 343 342 341 341 340 340 340 339 340 340 339 339 340 339 338 339 337 337 337 337 338 338 340 341 342 341 340 339 339 337 336 337 338 339 340 341 341 341 342 342 342 342 343 344 343 342 342 344 347 347 345 341 341 340 342 343 342 341 339 337 337 338 337 334 331 331 334 335
352 351 349 347 347 347 347 347 347 345 346 346 346 347 343 344 346 345 344 342 342 341 341 341 340 341 341 340 340 339 339 338 338 337 337 338 339 339 339 341 343 342 341 340 341 341 339 339 339 339 341 343 345 344 343 343 343 343 344 344 344 342 341 342 344 348 349 345 342 341 340 340 342 343 342 341 340 338 337 338 337 333 330 332 334
351 352 350 346 345 346 346 347 347 345 346 346 346 347 345 345 345 344 345 344 343 342 341 342 342 341 341 340 341 340 338 339 339 337 338 339 340 341 343 345 345 343 341 342 345 343 343 343 342 343 344 345 346 345 344 344 344 344 344 344 342 341 342 342 342 344 346 345 343 342 340 339 340 342 343 342 342 341 339 339 339 337 334 332 332
351 352 351 347 345 345 345 347 346 345 346 346 345 345 345 345 344 342 344 345 344 343 342 343 342 341 341 341 342 342 339 340 341 338 339 338 340 343 346 347 346 345 343 345 347 344 344 345 344 345 345 346 346 344 344 344 344 344 344 343 341 341 342 343 342 340 342 343 342 342 342 341 339 339 342 343 343 342 342 341 339 338 337 334 332
351 351 351 349 346 345 346 347 347 345 345 346 346 344 343 344 344 343 344 346 345 344 344 344 344 342 341 341 342 345 345 346 346 343 341 341 343 345 347 348 346 347 346 346 347 345 345 345 345 345 343 345 345 344 344 344 343 343 344 343 342 342 343 343 343 339 339 341 340 340 342 343 341 338 339 341 343 343 343 342 340 339 338 337 334
350 351 351 350 346 344 345 344 345 344 344 344 344 344 343 343 344 344 344 345 344 344 347 346 344 342 342 342 342 346 349 350 349 348 346 346 347 346 346 347 346 348 345 344 346 345 345 346 346 346 345 345 344 343 342 342 342 341 341 341 340 339 338 338 338 335 334 339 340 339 341 342 342 341 339 339 341 343 343 343 341 340 339 338 336
350 351 351 350 346 343 342 341 341 342 343 343 342 343 344 343 344 343 343 343 342 344 346 346 344 343 344 343 342 344 348 350 349 349 348 347 346 344 345 346 345 345 343 344 346 345 345 347 346 346 345 343 342 341 338 339 340 338 336 335 337 336 335 333 332 330 329 335 339 339 340 341 343 343 341 339 338 340 341 342 342 341 340 339 338
351 352 352 350 347 343 340 339 340 341 342 343 343 343 344 344 344 343 343 342 341 342 342 344 345 346 346 344 343 343 345 348 348 347 346 344 343 342 343 344 344 342 343 346 346 345 345 346 345 344 342 339 339 338 335 336 337 337 335 332 335 337 337 336 333 331 330 334 338 339 339 339 341 343 342 341 339 338 339 340 341 340 339 339 339
352 352 351 350 347 344 341 339 340 342 342 344 344 345 346 345 345 344 344 344 343 342 342 344 346 347 347 344 342 343 343 344 345 344 343 343 343 343 343 342 343 344 345 346 346 344 343 342 341 340 339 338 337 335 332 334 336 338 336 334 335 337 338 338 337 336 336 337 337 337 338 337 338 341 343 343 341 339 339 340 340 340 339 338 338
352 351 350 349 347 346 345 342 340 341 341 343 345 346 348 347 346 346 345 345 345 344 343 344 345 345 344 342 342 344 343 343 342 342 342 342 343 343 345 344 344 346 346 344 343 343 341 341 339 337 337 336 335 334 331 334 339 338 337 336 336 336 336 336 336 337 338 337 335 334 335 335 335 338 341 343 343 342 340 340 340 340 340 339 338
351 350 349 348 349 349 348 344 340 341 340 342 343 344 346 347 347 347 346 345 345 344 344 345 345 345 344 342 344 345 345 345 344 343 342 343 344 344 345 347 348 348 345 342 341 341 341 342 340 338 338 336 336 336 334 337 340 338 337 336 336 336 335 335 336 337 336 337 337 335 334 333 333 335 338 340 341 342 342 341 341 341 341 340 339
351 350 349 348 348 350 350 347 341 339 340 340 341 341 342 345 346 346 345 343 344 345 345 347 348 347 344 342 344 345 346 346 345 345 344 345 348 348 348 350 350 346 343 342 341 342 343 341 340 340 339 338 339 337 335 339 340 339 337 336 338 336 335 337 337 336 337 337 338 338 335 334 332 331 333 335 335 336 337 337 338 339 341 341 339
351 351 349 345 345 348 349 348 342 338 340 340 340 340 339 341 344 344 344 342 343 345 346 349 350 348 346 345 344 343 345 345 346 346 346 346 348 350 350 349 346 342 343 344 342 344 344 340 342 342 339 339 339 337 335 338 339 339 336 336 339 335 334 339 337 336 338 338 338 338 337 336 334 332 330 331 333 332 332 332 332 335 338 340 340
351 351 349 343 342 345 344 344 341 338 339 338 338 338 338 338 341 343 343 342 343 344 345 347 351 351 348 347 345 342 344 345 346 346 347 347 345 348 351 349 343 341 344 344 343 346 344 341 342 341 337 336 338 338 336 338 337 336 335 336 338 333 334 339 338 338 338 337 339 339 338 337 336 334 330 330 331 332 331 330 329 331 334 337 339
351 349 346 342 341 342 341 340 341 339 338 337 338 339 338 338 339 341 342 343 344 345 346 347 349 349 346 345 345 345 346 346 347 347 347 347 347 347 348 346 343 343 344 345 346 346 343 342 342 339 335 334 337 339 339 339 335 333 336 339 337 333 334 336 336 338 338 337 339 339 339 338 336 337 336 335 334 334 332 330 328 328 331 335 338
350 346 343 344 343 342 341 340 342 342 341 340 340 340 340 339 340 341 342 342 343 345 347 347 344 345 345 345 346 347 347 348 347 347 347 347 348 347 347 347 344 344 345 346 346 345 344 343 340 337 334 332 335 338 338 335 330 331 338 339 336 332 334 335 334 335 338 339 338 337 339 339 338 338 338 338 338 337 336 334 331 329 330 334 336
351 347 343 344 344 343 342 341 341 343 344 343 341 341 341 341 341 342 343 342 342 343 345 344 341 343 344 345 347 347 347 348 347 347 347 347 347 347 348 348 347 346 347 347 346 345 343 341 337 336 334 331 334 337 334 330 330 335 339 339 334 329 331 334 336 337 338 338 336 336 338 338 338 335 333 336 338 338 337 337 336 335 335 335 334
351 347 344 344 344 344 343 342 341 342 346 346 343 343 344 343 343 342 343 342 341 343 343 342 342 342 343 345 347 347 347 348 348 348 347 347 348 348 348 349 347 347 347 347 346 343 340 337 335 333 331 332 336 338 335 333 336 338 339 338 334 329 329 332 337 339 337 336 335 335 337 337 337 333 329 330 333 335 335 334 336 336 338 337 335
351 348 344 344 345 345 344 343 344 345 347 347 346 347 346 345 345 343 344 344 343 344 344 343 342 343 345 346 346 346 347 347 348 348 347 347 347 348 348 348 347 347 347 345 341 336 331 327 326 328 330 332 337 338 336 335 337 339 339 339 336 334 333 333 337 339 336 336 335 334 335 335 335 332 329 328 328 329 330 330 331 331 333 334 334
352 350 346 344 344 345 344 343 344 346 346 346 347 348 348 347 345 346 347 348 348 346 345 344 344 345 346 345 345 346 346 346 346 346 347 347 346 346 347 347 347 347 344 338 333 328 325 323 325 329 332 332 335 337 335 335 338 339 338 338 338 337 337 336 337 338 335 334 334 333 333 332 331 329 329 329 328 327 327 327 327 327 328 329 331
354 352 348 345 344 344 344 344 344 346 345 345 347 347 348 347 346 347 348 350 350 348 346 346 346 347 346 344 344 345 345 345 345 345 345 344 342 343 344 346 346 343 338 332 329 325 322 326 329 332 335 335 336 335 334 335 338 339 336 337 338 337 337 338 337 336 334 333 332 331 331 330 327 324 326 330 328 325 323 323 323 324 324 325 327
355 354 352 348 346 345 344 345 345 345 346 346 345 346 348 348 346 347 347 348 350 349 348 348 347 347 346 345 345 346 347 345 345 345 343 339 337 338 340 343 343 340 335 330 328 328 327 331 333 331 333 336 337 336 335 333 335 338 338 338 337 334 336 338 337 336 334 332 331 329 329 328 325 321 323 326 324 322 321 320 320 320 320 321 321
356 355 353 351 348 345 344 344 344 344 345 346 345 345 347 347 346 346 346 346 348 349 350 349 348 346 345 346 347 347 345 343 342 341 338 335 334 335 336 337 339 337 332 327 327 333 335 336 335 333 333 335 336 337 336 333 334 336 336 337 337 336 336 336 335 336 335 332 330 329 328 328 326 321 320 321 320 320 322 320 319 320 319 319 319
355 354 353 352 348 345 345 344 344 343 344 345 346 346 347 348 348 347 347 347 348 348 348 348 347 345 342 344 346 344 341 340 338 337 335 333 332 333 333 334 335 333 329 328 331 335 336 335 335 335 333 333 334 336 336 335 333 331 331 333 334 336 338 336 335 335 334 332 330 329 328 328 327 324 322 322 320 319 320 319 318 318 318 318 318
354 353 353 353 350 346 346 345 345 345 346 346 347 347 348 349 349 348 348 348 348 347 345 343 343 343 341 342 344 342 339 337 336 336 334 332 332 332 332 332 332 330 329 329 331 335 335 333 332 332 332 332 333 335 336 335 334 332 331 331 332 333 335 336 335 335 334 332 331 328 327 327 326 325 325 325 324 321 318 317 317 317 317 317 317
353 354 353 353 350 347 346 347 347 347 348 348 348 348 348 348 348 348 348 349 348 346 343 340 339 342 343 341 342 341 339 336 337 337 334 332 332 331 331 331 330 329 328 329 331 333 332 331 329 329 329 329 332 334 335 336 335 335 333 333 334 333 333 335 333 332 333 333 331 329 327 327 325 325 324 325 326 323 319 318 317 317 318 317 317
353 354 353 351 348 346 346 348 348 348 349 349 349 348 347 347 347 348 349 348 347 346 347 345 342 342 344 344 343 343 341 340 341 340 335 332 332 332 332 331 330 329 330 332 335 333 330 330 331 330 330 331 331 330 332 335 335 335 335 334 335 334 334 335 332 330 332 332 330 329 328 327 327 327 326 325 326 325 324 321 317 317 320 319 318
352 354 352 350 347 345 345 348 348 348 349 348 349 349 347 346 346 348 350 349 346 345 347 349 346 343 344 345 344 344 345 346 346 343 338 334 332 333 332 332 333 334 334 336 337 336 333 332 333 332 332 333 332 328 329 332 332 333 334 333 334 334 333 334 332 331 332 331 330 328 327 327 328 328 328 326 324 325 324 321 321 321 320 321 321
350 352 351 348 346 345 345 347 347 348 348 348 349 348 347 347 346 347 349 348 346 344 345 346 345 344 345 346 346 346 347 348 346 344 342 339 336 334 334 336 338 338 336 335 336 336 335 334 334 331 328 330 331 328 326 327 328 330 331 331 333 334 333 333 332 332 332 331 331 330 328 329 329 328 329 328 324 325 325 322 324 324 320 321 322
Wind_Speed
15 15 16 17 17 18 20 21 21 22 22 22 23 23 23 23 23 21 21 22 22 22 20 19 18 18 19 18 17 17 16 15 14 13 12 11 12 12 12 11 12 12 12 11 12 13 13 14 14 15 14 15 15 14 14 14 14 13 11 10 10 10 10 9 9 10 12 13 14 13 11 9 8 8 7 7 7 7 7 6 7 6 6 8 8
15 16 17 18 18 20 22 22 22 22 21 21 21 23 22 22 22 21 21 22 22 21 19 18 16 17 17 16 16 15 15 13 12 12 10 10 11 12 11 11 11 12 11 11 12 12 13 13 14 14 14 14 14 14 14 13 13 13 11 9 8 9 9 9 9 10 11 11 13 12 11 9 8 8 7 7 7 7 6 6 7 6 7 8 8
15 16 17 18 19 20 21 20 21 22 21 20 21 21 21 22 22 21 20 21 20 19 17 16 16 16 16 16 16 15 14 12 12 11 9 10 11 11 11 11 11 11 11 11 11 11 12 12 14 14 14 13 13 14 14 13 12 12 11 9 9 8 8 8 9 10 10 9 11 11 10 10 9 8 7 7 7 6 6 6 6 6 7 8 8
16 18 18 18 20 20 20 19 20 21 21 20 20 20 20 20 20 20 19 19 18 16 15 15 15 16 15 16 16 15 14 13 12 10 9 10 10 10 11 11 10 10 10 10 10 11 12 12 13 14 14 13 14 14 14 13 12 11 10 10 10 9 8 8 8 9 9 9 9 10 9 8 9 8 7 7 7 6 6 6 6 7 7 8 8
17 20 19 19 19 19 22 21 20 21 21 20 20 19 19 18 19 19 18 17 16 16 16 16 16 16 16 16 16 15 14 13 12 10 10 10 10 10 10 10 9 9 10 10 10 11 12 12 13 13 13 13 13 12 12 12 11 11 10 10 10 10 10 10 9 7 8 8 9 9 8 7 7 8 7 7 7 6 6 6 7 8 9 8 8
18 20 19 20 19 20 23 22 21 21 21 21 20 19 18 18 18 17 17 17 17 17 16 16 17 16 15 15 15 14 14 13 11 10 9 10 9 9 9 8 9 9 9 10 10 10 11 12 12 12 11 11 12 11 11 10 9 9 9 10 10 11 11 11 10 8 7 8 8 8 8 7 5 6 7 6 6 6 6 6 6 8 9 9 9
19 20 19 19 20 21 24 24 22 20 21 20 19 19 18 17 17 16 16 16 17 17 17 17 16 15 15 15 14 14 13 11 10 9 9 9 8 8 8 8 8 8 9 9 9 10 11 11 11 11 10 10 11 11 11 10 9 9 9 10 11 11 11 11 11 8 8 8 7 7 6 6 5 5 6 6 5 6 6 6 6 6 8 9 9
20 21 19 19 21 22 24 24 21 19 20 19 18 18 17 16 16 15 15 15 16 17 17 16 15 15 14 14 13 12 11 10 9 8 8 8 7 7 6 7 7 8 8 9 10 10 10 10 10 10 9 10 10 10 10 10 10 10 10 10 10 11 11 11 11 9 8 7 6 6 6 5 5 3 4 5 5 5 6 6 6 5 6 8 9
20 21 20 19 21 22 23 23 20 18 19 19 18 18 17 16 15 15 15 15 16 16 16 15 14 14 13 12 11 10 9 8 8 8 8 7 6 6 5 6 7 8 8 9 9 9 9 9 9 9 9 9 10 9 9 9 9 10 10 10 10 10 10 11 11 10 8 6 7 7 5 5 4 3 4 5 5 4 5 6 6 4 5 8 9
21 20 19 19 22 22 21 21 19 18 18 18 17 17 16 16 16 15 15 15 15 15 14 13 12 12 11 10 9 8 8 8 8 8 7 6 5 5 6 6 7 7 8 9 9 8 8 9 9 10 10 10 9 9 8 8 8 8 8 9 9 8 8 9 9 9 8 7 7 7 4 4 4 3 3 3 4 4 4 5 5 5 5 6 9
21 19 17 18 22 22 22 21 19 18 17 16 16 16 16 15 15 15 15 14 14 14 13 12 11 11 10 9 8 8 8 8 8 7 6 5 4 4 5 6 6 6 7 8 8 8 8 9 10 11 11 11 10 8 7 7 6 6 6 6 7 7 7 8 8 8 7 6 6 6 4 3 4 2 2 2 3 4 4 5 5 5 5 6 8
20 18 16 18 21 22 22 20 19 17 16 16 16 16 16 15 15 14 14 13 13 13 12 11 11 10 9 8 8 7 7 7 7 6 5 4 3 3 4 5 4 6 6 7 7 7 8 10 11 11 11 10 9 8 7 6 6 5 5 5 5 6 6 6 7 6 6 6 6 5 3 2 3 2 2 1 2 4 4 4 5 6 6 6 7
20 18 17 19 20 21 20 19 18 17 16 16 16 16 16 15 15 14 13 12 12 11 10 10 9 9 8 8 7 7 7 7 6 5 4 3 2 2 3 4 4 5 5 6 7 8 8 10 10 11 10 9 8 8 6 6 6 6 6 5 5 5 5 5 5 5 6 6 5 4 2 2 2 2 1 1 1 3 4 4 4 5 6 6 6
20 18 17 18 18 19 18 17 17 17 16 16 16 16 16 15 14 14 12 11 10 10 9 9 8 8 8 7 7 7 7 7 6 4 3 2 1 2 3 2 3 4 6 7 8 9 9 9 9 9 9 9 9 8 7 6 6 7 7 7 6 6 4 4 5 5 6 6 4 3 2 2 1 1 1 1 1 3 4 4 4 5 6 6 6
20 18 17 18 17 18 18 17 18 17 17 16 16 16 15 15 14 13 12 11 10 9 9 9 8 8 7 7 7 7 7 6 5 4 3 2 2 2 1 2 3 5 6 8 8 8 8 8 8 8 8 8 9 8 7 7 6 6 6 6 6 6 5 4 5 5 5 5 5 3 1 1 1 1 2 1 0 2 4 4 4 4 5 6 6
18 16 16 17 17 17 18 18 18 17 17 16 16 15 15 14 13 13 12 11 10 10 9 9 8 8 7 7 7 7 6 5 4 3 3 2 2 1 0 2 4 6 7 9 9 7 7 7 6 7 7 7 6 7 7 7 7 6 5 5 5 5 4 4 3 3 4 4 4 3 1 1 1 2 2 1 0 1 3 4 5 5 5 6 7
17 16 16 16 16 16 17 17 17 17 17 16 16 15 14 13 13 12 12 11 10 10 10 9 8 7 7 6 6 6 5 5 4 3 3 3 2 1 1 3 4 6 7 8 8 7 7 5 4 5 5 5 5 6 6 6 7 6 5 5 4 4 3 3 3 2 2 3 4 3 1 2 1 2 2 2 0 1 2 3 4 5 6 6 6
18 18 18 18 18 17 17 16 16 17 17 16 15 14 14 13 12 12 12 11 11 10 9 9 8 7 7 6 5 5 4 4 3 3 3 3 2 1 1 3 4 5 6 7 6 6 6 4 3 4 4 5 6 5 5 5 6 6 5 5 5 4 3 3 3 2 2 2 3 3 1 2 2 1 2 2 1 1 2 2 4 5 6 6 6
18 18 18 18 17 18 17 16 16 16 16 15 14 13 13 13 13 12 12 12 11 10 9 9 8 7 6 6 5 4 4 4 4 4 3 3 1 0 1 2 3 4 5 7 5 4 4 3 2 4 4 6 6 6 6 5 5 5 5 5 6 5 4 4 4 3 3 2 3 3 3 3 2 2 0 2 2 2 2 2 3 4 5 6 6
18 18 17 17 16 17 18 17 16 15 15 14 14 13 13 13 13 12 12 11 11 10 9 9 8 7 6 5 4 4 4 4 4 4 3 2 1 2 2 2 3 4 5 5 5 4 3 2 2 3 5 6 6 6 6 6 5 5 5 5 5 6 6 5 5 5 4 3 3 4 4 4 3 3 1 2 3 2 2 3 3 4 5 5 6
19 19 18 17 17 18 18 16 16 16 15 14 14 13 13 13 11 11 11 11 10 10 9 8 7 6 5 5 4 4 4 4 4 4 3 3 3 4 3 3 3 4 4 4 5 4 3 2 2 3 4 5 6 6 6 6 7 6 6 5 5 6 6 6 5 6 6 5 4 5 5 4 4 3 3 3 3 3 3 3 4 5 5 5 6
19 19 18 18 17 18 17 16 16 16 15 14 14 12 12 12 11 10 10 10 10 10 9 8 7 7 6 6 5 5 5 5 5 5 4 4 5 4 4 4 4 4 4 4 4 4 3 2 3 3 4 5 6 7 7 8 7 7 7 6 6 6 6 6 6 6 6 6 6 6 6 5 4 4 4 4 4 4 4 4 4 5 6 6 6
19 19 18 18 17 17 17 16 15 16 15 14 13 12 12 12 11 11 10 10 10 10 9 9 9 8 7 7 6 5 5 5 6 5 5 6 6 6 5 5 4 3 3 3 3 3 3 3 3 4 5 6 6 7 7 8 8 7 7 7 7 6 6 6 7 6 5 6 8 7 6 6 4 5 5 5 5 5 5 5 5 5 6 7 7
18 18 18 18 17 17 16 16 15 15 14 13 13 12 13 13 11 11 11 11 10 10 10 10 10 9 8 8 7 6 6 6 6 6 6 6 7 7 6 5 5 4 3 2 2 2 3 3 4 5 6 5 5 6 6 7 7 7 7 7 7 7 7 7 6 6 6 9 10 7 6 6 5 6 5 6 6 6 6 7 6 5 6 7 7
18 17 17 18 18 17 16 16 16 16 15 14 13 13 13 13 12 12 11 11 11 11 11 10 10 9 9 8 7 7 7 7 7 7 7 7 7 6 5 6 6 5 3 2 2 3 3 4 5 5 5 5 5 6 6 7 6 7 7 7 8 9 9 9 8 7 7 10 11 9 8 6 6 7 6 6 7 7 7 7 7 7 7 7 8
17 17 18 19 18 18 17 16 16 17 16 14 14 13 14 13 13 13 12 11 11 11 11 10 10 10 9 8 8 8 7 7 7 8 8 7 7 6 5 6 6 5 4 2 3 4 3 5 6 5 5 5 6 8 9 9 8 9 9 10 11 12 12 11 10 9 8 10 12 11 10 8 7 7 7 7 7 8 8 7 8 9 9 8 8
17 18 18 19 20 19 18 17 16 17 16 15 14 14 15 13 13 14 12 11 11 11 10 10 10 10 10 9 9 8 8 7 8 8 8 7 6 6 6 6 5 5 5 4 4 5 4 5 6 7 7 6 7 9 9 10 10 10 9 10 12 12 12 11 10 10 8 10 12 12 12 11 9 7 8 7 7 8 8 8 8 10 10 10 8
18 17 17 19 21 20 19 18 17 17 17 16 15 15 15 15 14 14 13 12 12 11 10 11 11 11 11 10 10 9 8 7 8 8 8 7 7 7 6 6 6 5 7 6 5 6 6 6 7 8 8 7 8 8 9 9 9 9 9 9 10 11 11 9 9 10 10 9 11 12 12 13 11 9 8 8 8 9 9 8 10 11 11 11 11
19 19 18 19 21 21 20 18 18 18 17 17 16 15 16 16 15 14 14 14 13 12 12 12 12 11 11 11 10 9 9 8 9 8 9 9 9 9 8 7 8 8 8 7 6 8 7 6 7 7 7 7 7 8 9 10 9 9 10 9 9 10 10 10 10 10 11 9 9 11 12 13 13 12 10 9 9 9 10 9 10 12 12 12 13
20 19 18 18 21 22 21 20 19 18 18 17 16 16 15 16 15 15 15 14 14 13 13 13 12 12 11 12 11 10 10 9 9 10 10 11 10 10 9 9 9 9 8 7 8 9 7 8 8 8 9 8 8 8 10 9 8 8 9 9 8 8 8 9 9 9 9 9 8 9 11 12 14 14 12 11 10 10 9 10 10 11 12 13 13
20 20 20 20 21 22 22 21 19 18 18 17 17 16 15 15 15 15 15 14 14 14 14 13 13 12 13 13 12 11 11 11 11 11 11 12 11 11 10 10 10 10 9 8 9 10 9 10 10 9 9 9 9 10 11 9 7 7 9 10 8 7 7 7 7 7 7 9 9 9 9 11 13 14 14 12 12 11 10 10 10 10 10 12 14
20 21 21 20 20 21 21 21 20 19 20 19 17 16 14 14 15 15 16 16 15 15 14 14 14 14 14 14 12 11 11 11 11 11 12 12 12 11 11 11 11 10 10 11 11 11 11 11 11 11 9 9 9 11 12 9 6 7 8 9 8 6 6 6 5 6 6 7 10 10 10 11 12 13 14 14 13 12 11 10 10 11 10 12 13
20 21 21 21 20 20 21 21 21 20 20 20 18 16 15 14 14 14 15 16 15 15 15 15 15 14 15 15 13 13 12 11 11 12 12 13 13 13 12 11 10 10 12 13 13 12 12 11 12 11 9 8 8 9 10 7 6 8 7 7 8 6 6 5 5 5 6 5 8 9 10 11 12 12 13 13 14 13 12 11 11 11 11 12 14
19 20 22 23 21 20 21 22 22 21 21 21 19 17 17 16 14 14 14 15 15 16 16 15 15 15 16 15 15 14 13 13 13 13 13 14 13 13 13 11 11 13 14 14 14 12 12 12 11 10 9 7 6 7 9 7 6 7 7 6 7 6 5 4 5 5 5 5 6 7 7 9 11 13 13 13 14 14 14 14 13 12 12 13 14
19 19 23 25 24 22 22 23 23 22 21 21 20 18 17 17 16 15 14 14 14 15 16 15 14 15 15 15 15 16 15 15 14 14 15 15 15 14 13 14 16 17 15 15 15 12 12 13 10 8 8 7 6 8 11 10 7 6 7 7 5 6 5 4 5 4 4 5 5 5 5 6 7 9 12 13 14 14 14 14 14 13 12 13 15
21 21 23 25 25 25 25 23 23 22 21 21 20 19 18 18 17 16 15 14 15 15 16 16 14 14 14 15 16 17 16 16 16 17 17 17 17 16 14 17 19 18 17 18 16 12 13 12 9 8 9 8 7 9 10 10 8 7 7 6 5 6 4 3 4 3 4 4 3 4 4 4 3 5 7 8 11 14 14 14 14 13 12 12 14
23 24 24 25 25 25 25 23 22 21 21 20 20 19 19 18 18 17 17 15 15 15 15 16 15 15 15 16 17 17 17 17 17 18 19 19 18 17 17 20 20 19 19 19 16 14 13 10 8 9 10 9 8 8 8 9 9 7 6 5 5 5 3 3 2 2 4 4 2 3 4 4 3 3 3 3 6 9 11 13 14 13 12 12 12
24 25 24 24 24 24 24 23 23 21 20 20 19 19 19 19 19 19 19 17 16 16 16 17 16 16 17 17 18 18 18 17 17 17 19 19 17 16 18 20 21 20 20 20 18 15 11 9 9 10 10 10 9 8 8 8 9 7 4 5 5 3 2 2 2 2 2 3 3 3 4 5 4 4 4 3 2 4 6 8 10 11 11 12 12
24 25 24 23 23 24 23 23 24 22 20 20 20 19 19 19 19 20 20 20 18 17 18 17 16 16 17 17 18 18 17 17 17 18 19 18 17 18 18 19 21 21 21 19 15 11 9 9 10 11 11 11 10 8 7 7 8 6 5 5 5 3 1 1 1 1 1 2 4 3 4 5 4 4 4 4 4 2 2 4 5 7 9 11 12
24 25 25 24 24 24 24 24 24 22 21 21 21 20 20 20 21 21 21 21 20 19 19 18 16 16 17 17 17 17 17 17 17 18 19 18 18 19 19 19 21 21 18 14 9 8 9 10 11 11 11 11 9 6 5 6 6 6 4 4 5 4 2 1 0 1 1 2 4 3 3 4 4 4 4 3 4 3 3 3 3 4 7 9 10
24 26 26 25 25 24 25 24 23 22 22 22 22 21 21 22 22 22 21 21 21 22 21 19 18 18 18 18 17 17 17 17 17 17 18 17 18 18 17 17 17 15 12 9 8 10 12 14 13 12 11 9 7 5 6 6 4 4 3 2 3 3 1 1 1 2 2 2 3 3 2 3 4 4 3 3 3 3 3 3 4 4 5 6 8
26 26 27 27 26 26 26 25 24 23 23 23 23 22 23 23 23 22 21 21 21 22 21 19 19 18 18 18 17 17 17 16 16 16 15 14 14 14 13 13 12 10 8 8 11 13 14 13 10 8 8 7 6 5 6 5 4 3 2 2 2 2 1 2 1 1 2 2 2 2 3 3 4 4 4 4 3 3 4 4 4 5 5 5 6
26 27 28 27 27 27 27 26 25 24 24 24 24 24 23 23 22 21 20 19 19 19 19 19 18 17 17 18 18 17 16 15 15 14 12 11 10 10 10 9 8 8 8 10 12 12 11 8 5 4 4 5 5 5 6 4 3 3 3 3 2 3 3 0 1 1 1 2 2 2 3 3 5 4 5 5 4 3 3 4 4 5 5 5 6
26 27 28 28 29 28 28 27 26 25 24 24 25 24 22 22 22 20 19 18 18 17 16 16 17 16 16 17 17 16 14 12 12 11 10 10 10 10 9 8 8 9 10 11 10 8 7 4 3 3 3 4 5 5 6 4 3 3 3 3 2 4 4 2 2 2 1 1 1 2 2 3 4 4 3 3 3 3 4 4 5 5 6 5 5
27 28 28 29 30 29 28 27 26 26 25 24 24 24 23 23 22 21 20 19 18 17 15 14 15 14 14 14 13 12 12 11 11 11 11 10 10 10 9 9 9 10 11 10 7 5 4 3 3 4 4 4 4 4 6 5 5 4 4 4 4 4 2 0 2 3 2 2 0 1 2 2 3 5 4 5 5 5 5 6 6 6 7 7 7
28 28 28 29 30 30 28 27 27 26 26 25 24 23 23 23 22 21 20 19 18 17 16 15 15 14 13 13 12 11 12 12 12 12 10 8 8 9 8 8 9 10 10 8 5 4 4 4 4 5 5 5 5 4 5 6 6 5 5 5 5 4 3 2 3 3 3 2 3 2 1 1 3 5 6 6 6 6 5 7 7 7 7 7 8
29 29 28 29 30 31 29 28 27 26 26 25 25 24 23 22 22 21 20 19 18 18 18 17 15 14 12 12 12 12 12 12 11 10 8 6 7 7 8 8 8 9 8 7 5 4 5 6 5 5 5 5 4 3 3 5 6 5 5 5 4 4 4 3 3 2 2 3 4 4 2 2 2 3 4 5 5 6 7 7 7 8 8 8 8
30 30 29 30 31 32 30 28 27 27 26 25 25 25 24 23 22 21 20 20 19 19 18 16 14 13 12 12 12 12 12 12 10 9 8 7 8 8 8 9 8 8 8 7 6 6 7 7 6 7 7 6 5 3 3 4 4 4 4 3 3 3 3 2 2 2 3 3 4 4 3 3 3 2 3 3 4 7 8 7 7 7 7 9 8
31 30 31 32 32 33 31 29 28 27 26 26 25 25 25 24 23 22 21 21 20 18 16 15 13 13 13 12 13 13 13 12 11 10 10 9 9 9 9 9 9 8 8 7 7 8 8 7 6 7 6 5 5 4 3 3 2 3 4 2 1 1 2 2 3 3 3 5 5 4 4 5 4 4 3 3 4 6 6 7 8 6 5 7 8
31 30 32 33 33 33 32 30 29 28 27 27 26 26 26 25 25 24 23 22 20 18 17 16 15 15 15 14 16 15 12 10 10 10 11 10 10 10 11 10 9 9 9 8 8 8 8 7 6 6 5 4 4 3 3 3 2 3 3 2 2 2 2 2 3 4 4 5 5 5 6 5 5 5 4 4 5 5 5 7 7 6 5 5 6
32 32 33 34 34 34 33 31 30 29 28 28 27 26 26 26 27 27 25 23 21 19 20 19 17 17 16 15 15 14 10 9 9 10 10 10 11 12 11 10 9 9 10 9 9 8 7 7 7 7 6 5 4 3 3 3 4 4 3 3 3 3 3 3 4 5 5 5 6 7 7 7 7 7 6 7 8 6 6 6 5 6 8 6 6
Wind_Direction
153 151 145 141 137 140 140 139 138 136 137 139 141 144 146 146 146 145 143 137 134 132 129 128 130 133 137 139 135 130 124 121 119 115 112 106 97 90 90 88 85 80 72 65 62 63 60 55 53 52 50 47 46 41 37 41 47 50 50 47 44 42 44 44 41 39 36 33 32 32 27 30 37 39 48 54 63 75 82 95 96 94 103 100 102
155 152 146 143 138 140 142 141 139 138 140 140 140 143 147 148 148 148 145 140 136 132 127 126 127 132 136 137 136 132 125 124 121 117 113 102 93 90 89 86 82 74 66 63 61 59 56 51 47 46 45 44 43 40 36 37 43 49 51 50 45 43 44 40 37 36 35 33 30 31 28 30 37 35 44 52 56 72 84 96 105 113 111 102 110
151 150 148 147 142 142 146 146 139 139 141 139 139 142 148 149 149 150 149 144 141 137 132 129 129 130 133 135 135 132 129 127 123 119 112 99 91 90 87 83 75 67 63 62 59 55 53 48 42 40 39 39 37 37 33 32 36 42 48 48 43 41 38 33 31 30 31 34 32 32 33 30 35 36 39 51 53 71 87 92 102 111 108 111 121
147 148 149 147 142 141 146 148 140 139 142 140 139 141 146 147 147 151 150 147 147 145 141 137 132 130 131 134 134 134 132 128 124 119 110 100 93 90 86 81 72 65 62 59 56 50 47 43 38 36 34 34 34 34 32 28 28 30 37 40 38 36 32 26 25 31 31 34 37 41 47 35 32 39 40 48 52 64 84 94 99 103 112 124 127
145 146 146 144 140 141 145 146 140 140 143 142 140 140 142 143 145 149 149 148 150 151 148 141 136 134 132 132 133 132 131 128 124 117 109 100 95 91 87 79 70 65 61 57 53 46 42 37 33 32 31 32 32 30 30 29 24 22 28 32 32 29 26 23 19 31 37 39 48 51 57 51 35 43 47 46 53 66 82 95 101 106 118 128 129
142 142 143 141 139 143 144 144 142 141 144 145 142 141 142 142 144 147 148 147 148 148 146 141 138 136 133 131 131 132 131 128 123 115 106 100 98 93 86 76 68 63 60 56 49 42 37 32 28 28 28 29 27 24 25 25 20 18 25 26 23 21 20 19 19 29 42 47 52 53 58 61 46 45 49 44 52 73 84 92 99 108 121 129 130
142 141 141 141 142 147 146 145 145 144 145 146 144 141 142 142 143 144 145 145 144 143 142 141 139 138 136 135 135 135 133 127 122 114 106 102 99 94 85 74 67 62 58 55 46 37 32 27 23 23 23 25 24 20 20 18 12 8 19 23 16 19 20 19 20 24 41 52 54 56 62 63 57 45 46 49 52 72 87 89 92 103 121 128 126
143 142 142 146 150 151 149 147 148 147 146 147 146 143 142 143 142 142 142 142 144 143 143 143 142 141 140 140 141 139 134 129 123 114 107 105 103 96 84 73 67 62 58 51 42 33 27 20 15 17 17 17 18 18 19 15 8 4 9 16 15 17 19 20 19 19 34 53 61 61 66 67 68 56 45 58 61 74 91 90 90 104 125 125 121
143 144 145 151 155 155 151 149 149 148 147 149 150 147 144 144 142 142 141 143 145 146 144 144 144 144 146 147 146 142 136 132 128 118 110 109 107 96 77 69 67 62 54 46 38 30 22 12 8 7 9 11 12 16 19 16 12 8 2 5 13 16 15 18 20 23 30 43 60 59 66 73 78 73 53 67 78 86 99 99 100 114 132 128 126
142 146 148 153 157 157 154 152 152 150 150 150 151 149 146 144 142 141 141 143 146 146 146 145 145 147 150 150 147 142 138 137 133 124 117 115 106 87 72 69 67 59 46 41 34 25 15 6 4 1 4 7 8 10 12 16 16 14 3 359 6 11 12 15 26 32 31 38 49 54 65 78 87 81 54 72 91 96 103 106 108 115 133 132 128
143 145 146 154 158 158 159 159 156 153 153 151 152 152 148 146 144 142 142 143 146 147 147 146 147 148 148 144 142 143 144 142 135 130 125 119 104 80 73 77 69 53 40 34 26 17 5 360 4 2 3 4 6 5 4 8 9 18 15 7 5 8 11 14 32 35 33 42 40 51 63 71 96 90 49 65 98 111 116 113 113 116 129 129 124
144 145 145 153 158 159 160 161 159 157 158 155 154 155 153 151 148 146 145 146 147 147 147 147 149 147 145 143 145 147 147 144 139 138 130 121 103 81 83 85 65 46 35 27 19 8 358 358 2 360 359 2 3 359 2 2 357 11 19 21 16 10 8 11 34 37 36 47 42 55 63 51 81 86 64 77 117 123 125 123 121 123 129 129 128
145 145 146 152 156 157 159 160 161 160 161 157 156 157 155 155 152 152 151 150 149 147 147 147 149 149 148 149 150 150 149 152 152 150 137 127 107 91 95 81 49 36 25 19 8 356 358 359 358 353 351 356 357 351 358 5 359 2 5 14 16 14 12 13 37 43 41 43 42 53 47 39 68 71 93 131 133 119 128 138 134 134 135 136 137
145 146 147 153 155 155 159 161 162 162 162 158 159 159 156 157 156 156 155 152 153 151 151 151 154 154 155 156 157 157 159 166 165 161 150 141 125 110 97 61 30 20 15 15 360 351 360 357 351 348 348 352 350 346 351 4 9 0 357 1 5 11 10 16 35 38 38 37 35 50 37 29 47 49 96 135 121 119 139 158 150 147 146 143 144
145 147 148 153 156 155 159 163 165 163 162 158 160 161 158 160 158 158 159 158 160 158 159 158 160 161 161 162 162 166 170 175 174 170 166 160 141 124 93 19 14 12 13 13 0 360 8 358 349 348 352 354 347 347 353 3 15 10 358 354 356 3 7 23 35 25 24 28 31 62 61 13 11 52 94 95 109 128 134 151 161 167 162 152 150
144 145 147 151 153 154 156 161 164 159 158 159 161 163 159 160 160 161 164 166 167 166 167 166 165 163 161 164 165 169 173 174 177 176 176 167 151 141 7 6 16 13 16 11 2 14 26 12 358 357 359 354 348 350 357 7 17 23 16 6 2 4 13 31 43 23 12 19 25 57 103 329 15 57 93 93 270 155 129 138 166 179 177 163 158
145 144 145 147 148 150 154 158 158 155 159 161 162 163 161 162 162 165 169 170 172 172 170 169 166 162 162 165 165 167 169 172 177 179 180 173 164 157 16 14 17 12 16 6 359 19 31 28 12 10 3 346 349 355 359 9 14 24 30 27 23 22 24 21 36 26 357 7 16 43 135 253 356 49 93 108 83 166 150 136 157 175 185 178 163
145 146 147 146 147 148 152 156 156 156 160 163 164 164 163 163 165 169 172 172 174 173 170 169 166 164 166 166 165 166 172 177 182 182 184 173 159 115 27 8 6 6 4 353 358 30 33 32 18 9 353 336 347 360 6 13 12 19 26 29 24 25 22 9 20 360 335 352 2 20 341 272 290 2 79 127 126 149 176 149 142 165 186 185 175
145 146 149 148 149 151 154 157 157 159 160 163 166 168 167 167 170 171 173 175 175 173 171 172 170 171 172 172 170 175 189 193 193 189 185 166 137 109 333 340 348 348 345 341 349 31 30 26 16 357 348 345 353 1 4 9 10 12 17 20 15 14 14 7 2 341 333 333 332 333 314 304 280 282 35 150 169 161 180 184 154 166 186 186 186
149 151 154 154 156 158 159 159 160 163 163 166 168 170 173 171 172 174 176 178 177 177 177 178 180 182 181 184 181 185 200 201 202 194 186 172 171 247 273 305 322 328 336 341 337 354 11 16 25 2 354 357 355 352 356 3 8 11 14 13 7 7 7 359 348 334 328 317 307 309 311 312 290 263 241 197 193 186 177 185 180 179 186 185 189
157 159 160 159 162 164 163 161 163 166 165 168 170 171 177 173 173 178 179 181 184 186 186 186 187 193 194 194 191 189 196 202 209 204 202 210 223 245 266 291 305 316 328 338 332 330 339 353 17 8 358 356 349 345 353 1 5 9 12 14 13 8 358 350 345 334 331 326 314 309 312 308 296 269 235 220 206 207 191 179 190 193 191 192 193
163 165 165 164 166 167 166 166 166 167 167 169 169 172 177 173 175 181 183 186 190 192 192 192 191 197 201 198 196 197 204 212 218 217 222 235 244 259 274 292 302 309 318 326 323 320 319 324 347 359 355 350 348 349 351 352 355 360 3 11 16 5 352 349 348 338 331 323 317 316 313 305 294 279 249 230 214 212 209 191 192 198 197 198 199
167 169 169 168 169 169 170 170 170 170 168 170 171 173 176 174 176 182 187 191 193 194 193 196 197 199 201 201 203 208 219 228 235 235 240 253 261 264 271 282 287 294 305 313 319 321 315 307 324 336 337 345 349 345 342 342 344 349 355 1 359 349 347 347 343 337 324 307 308 315 313 303 286 271 258 244 227 214 217 213 202 200 204 204 203
170 172 173 173 174 174 172 172 174 173 171 174 175 176 179 179 181 184 188 192 194 195 195 198 201 201 204 206 209 218 230 241 249 252 257 263 265 267 276 283 279 277 284 317 340 328 322 313 315 322 327 337 339 332 330 332 334 338 344 344 335 329 329 327 325 321 311 304 303 306 308 301 285 268 257 250 238 221 219 221 214 205 206 208 207
172 173 177 178 179 178 176 177 177 177 176 178 179 181 184 185 188 188 189 192 194 197 200 203 204 206 209 212 219 229 236 247 257 258 259 260 261 272 285 282 280 276 269 319 333 318 341 327 321 326 326 325 312 310 311 312 317 321 324 320 317 319 318 312 304 296 295 298 297 300 302 295 285 273 260 251 242 233 225 223 222 217 212 211 209
177 177 180 182 183 181 181 183 183 183 182 181 185 188 188 187 191 192 191 194 196 199 203 206 211 214 214 217 225 237 244 252 262 262 260 259 262 271 276 269 273 277 267 284 302 301 326 315 316 316 309 308 297 296 298 300 303 302 304 301 302 306 307 304 297 291 287 286 286 290 293 288 281 274 269 257 243 239 234 225 224 224 219 216 213
184 184 184 184 185 185 185 186 187 188 187 187 189 191 192 191 192 195 195 198 201 203 207 210 217 219 220 223 225 237 250 256 262 264 263 264 267 265 265 264 265 271 265 273 293 297 306 304 310 308 304 301 295 300 301 301 302 300 301 299 298 298 298 299 294 290 288 284 282 281 280 279 276 270 268 261 249 244 240 230 224 226 224 221 219
189 190 189 188 187 188 188 188 190 191 191 192 192 194 197 197 197 200 200 204 206 207 212 216 221 223 224 227 226 232 243 251 256 261 265 262 260 256 255 261 260 263 268 276 284 286 294 302 306 306 306 306 304 310 309 310 316 316 315 310 306 304 298 295 290 285 284 281 280 279 273 271 272 268 263 259 252 248 245 235 226 226 225 221 222
192 192 192 193 191 190 190 191 192 193 193 194 196 198 201 202 202 203 204 208 208 209 215 219 225 227 229 230 229 230 236 247 252 254 257 254 251 251 250 254 258 260 269 278 281 283 294 298 302 305 305 311 310 309 316 323 330 325 319 316 311 308 302 295 289 282 278 272 270 274 271 266 265 265 262 258 254 251 252 247 235 227 224 222 222
196 193 193 195 195 195 194 193 194 195 195 196 199 201 203 206 207 207 209 212 211 213 217 221 227 230 234 236 234 233 234 241 247 249 250 250 250 250 249 253 258 262 268 277 279 281 290 292 299 308 308 315 315 315 328 331 329 322 315 319 316 305 300 295 294 290 283 276 263 262 270 266 260 262 261 259 257 253 253 251 244 232 224 225 224
199 196 196 199 198 199 199 200 200 199 198 199 201 203 206 209 212 214 216 218 218 219 221 224 229 232 236 240 239 238 237 239 243 246 248 250 251 251 253 254 257 265 270 273 278 281 288 294 299 307 309 316 321 324 332 332 326 322 320 327 325 310 299 294 297 297 287 281 267 255 265 268 260 258 257 257 257 255 253 251 246 237 228 228 229
203 201 202 204 202 202 204 206 208 207 205 204 203 205 209 212 216 218 222 225 225 226 228 229 233 236 240 242 242 241 239 240 243 246 248 249 251 252 255 258 262 268 272 272 277 284 291 296 300 306 309 314 324 327 330 333 323 321 328 328 325 317 302 294 294 289 284 286 280 267 260 264 263 260 258 258 258 256 255 252 246 240 233 233 234
204 206 206 207 206 205 209 210 212 212 211 209 207 208 211 214 217 219 225 229 229 232 233 235 238 241 245 244 244 244 243 243 246 247 248 252 254 255 256 263 267 265 271 275 278 285 292 299 304 307 309 318 330 326 327 327 309 321 333 325 325 323 309 306 300 289 287 288 288 281 269 266 267 266 264 264 264 264 263 259 253 246 238 235 237
203 206 208 209 208 206 210 213 213 214 214 214 213 213 215 218 220 221 226 230 232 234 235 237 239 242 247 248 248 249 252 253 254 253 253 256 259 261 261 262 263 265 271 275 279 286 291 297 303 302 308 322 325 318 321 314 304 324 328 323 326 321 320 316 298 291 293 285 281 285 283 277 273 272 269 269 270 270 270 269 264 256 245 238 237
202 205 210 211 210 209 212 213 213 214 215 215 217 220 221 222 224 225 228 230 232 235 235 236 239 244 247 249 251 251 255 259 260 260 260 260 260 261 263 260 261 267 272 272 279 286 288 293 296 296 309 315 308 316 319 310 310 324 321 325 323 314 328 313 298 309 305 295 291 289 290 282 278 280 275 272 272 270 272 273 272 267 256 246 241
203 206 210 213 211 211 214 213 214 215 216 218 220 223 225 226 227 228 229 231 234 237 237 237 237 242 245 249 254 255 257 260 262 264 265 264 260 258 258 259 262 266 267 271 280 281 280 287 288 291 304 305 304 314 310 304 313 318 317 323 311 310 322 299 306 320 300 300 311 311 313 309 305 297 281 269 269 271 271 271 273 273 266 257 250
206 209 211 212 212 213 214 214 215 217 219 222 223 224 227 228 229 230 231 231 235 240 241 240 239 244 250 253 259 263 262 263 265 267 267 263 258 255 254 257 261 264 265 270 277 274 277 283 285 292 300 302 304 305 299 299 308 310 313 311 303 309 303 286 302 300 306 329 342 338 340 344 346 329 309 280 266 267 270 271 272 275 274 268 260
210 213 212 212 212 213 214 212 216 219 220 222 223 224 227 229 232 232 232 231 234 238 241 244 246 250 255 257 260 265 266 266 269 269 267 263 257 255 255 257 260 262 264 270 272 271 277 282 284 293 298 298 296 289 287 291 300 309 309 296 296 305 282 275 289 295 340 346 341 353 344 342 359 356 350 337 297 259 265 272 273 276 277 273 269
211 213 212 212 212 213 214 213 216 218 220 222 223 225 228 231 233 234 234 233 234 238 243 250 251 251 255 260 262 265 265 265 265 265 264 262 262 260 256 256 259 262 267 270 269 269 274 278 284 292 294 296 292 283 282 289 299 309 302 291 298 310 292 267 279 6 32 337 328 357 347 341 352 350 351 351 341 329 283 276 271 269 269 270 269
211 214 214 213 213 213 213 215 217 217 220 224 224 226 228 230 233 235 236 236 238 239 245 251 253 252 254 258 262 263 262 259 258 259 260 260 263 264 259 257 261 264 266 265 261 263 271 278 284 287 287 288 289 286 290 297 303 303 291 285 297 308 307 287 97 67 31 344 330 344 349 344 347 338 335 337 331 332 323 299 279 266 265 273 275
212 216 216 215 214 213 214 216 217 217 220 225 226 226 227 229 232 234 236 237 240 243 246 250 251 253 255 257 258 257 257 256 255 256 260 263 263 266 265 261 261 260 257 253 255 266 276 281 280 276 273 271 274 281 291 305 313 302 285 275 294 301 309 340 45 50 2 348 341 343 360 349 348 350 343 333 315 307 307 299 288 279 275 283 287
211 215 217 217 215 216 218 218 219 220 222 225 227 227 228 230 232 233 235 236 240 244 248 249 249 251 256 256 253 252 254 255 258 259 264 267 266 268 268 262 256 248 245 256 271 281 286 286 278 269 267 266 266 270 282 299 313 307 282 240 244 257 277 14 5 344 335 344 1 4 16 1 341 355 14 16 6 338 314 301 292 288 285 284 285
210 214 217 218 217 218 219 221 221 222 224 227 228 229 230 232 234 236 236 236 239 244 248 249 249 249 250 250 249 250 252 254 259 259 261 266 266 267 264 257 246 238 253 275 286 291 290 285 274 259 263 273 281 281 281 285 290 294 269 239 225 260 267 88 270 279 339 347 17 29 36 17 339 351 31 33 24 9 335 318 313 305 299 292 283
210 212 215 216 217 217 218 219 220 222 224 226 227 228 230 233 236 237 238 238 239 243 245 246 246 246 247 249 251 251 252 255 258 256 257 261 261 257 251 248 243 245 267 283 286 288 288 282 274 269 265 274 287 291 288 279 264 263 266 272 274 265 258 189 209 246 262 312 41 41 48 41 345 341 17 13 354 357 346 331 326 324 320 313 301
209 211 213 214 215 215 216 217 218 220 222 224 226 227 229 232 234 236 238 238 238 240 240 240 242 244 246 249 249 250 252 255 254 254 258 258 250 246 245 246 250 261 277 282 274 269 276 271 274 283 278 272 271 281 288 282 266 257 265 283 276 271 284 144 236 244 243 263 358 18 29 38 336 323 325 322 321 334 337 326 321 323 324 323 322
209 211 212 213 215 214 214 214 216 219 221 223 224 225 228 231 231 231 232 233 234 236 236 238 241 242 244 245 244 246 249 252 252 255 259 255 242 238 240 245 255 269 277 274 264 260 267 264 265 274 277 274 264 266 283 285 279 271 264 269 274 295 327 328 283 256 232 240 257 282 335 353 332 336 338 333 329 331 329 320 316 315 315 317 321
209 210 211 212 215 215 214 214 215 218 220 222 223 224 226 228 229 229 229 230 232 234 236 237 238 239 238 238 240 243 245 249 255 260 262 252 238 233 237 246 257 268 268 261 257 255 257 261 263 267 271 273 267 259 268 276 285 286 275 265 265 276 287 302 307 292 257 230 241 265 272 291 327 345 347 352 340 327 322 318 317 316 314 312 312
209 210 211 213 215 216 215 215 216 218 221 222 223 224 225 225 227 228 229 230 232 235 237 236 233 232 231 230 234 239 242 245 247 253 259 252 241 238 240 247 255 259 255 249 248 244 245 252 259 265 268 269 269 266 261 263 277 287 278 261 259 270 277 300 304 298 298 274 248 245 249 284 306 295 323 348 326 322 327 322 322 322 316 313 310
208 209 211 213 216 216 215 215 217 219 222 223 225 226 226 225 226 227 228 230 231 232 233 231 226 225 228 228 231 235 237 241 240 241 249 250 242 239 240 244 247 248 243 237 238 241 240 242 248 258 264 265 266 266 260 255 251 259 260 240 231 280 294 304 297 292 295 282 268 257 259 279 279 269 305 327 312 323 325 318 326 330 316 307 304
209 210 213 215 217 217 216 216 218 220 223 225 226 227 227 226 226 226 228 229 228 227 227 227 225 225 227 226 233 237 235 237 237 236 241 245 243 240 241 242 239 239 234 224 224 231 235 236 239 248 253 252 258 266 264 255 234 228 241 234 205 228 248 273 286 281 277 276 277 277 277 281 279 279 284 285 301 311 302 312 328 324 312 299 291
210 211 214 216 218 218 218 218 219 221 224 226 227 227 227 227 227 227 229 229 227 225 226 227 225 225 226 226 232 236 233 233 236 239 240 238 239 239 236 234 231 232 231 222 218 222 230 237 237 241 248 249 251 261 257 245 239 226 227 240 223 217 242 251 259 264 267 272 277 282 286 291 295 292 275 277 300 306 295 308 312 305 313 305 287